NOAA 16 DEB, 41237

Orbit data source: Space-Track

NOAA 16 DEB, 41237 is space debris in SSO originally from a launch on Thu, 21 Sep 2000 UTC launched from the Air Force Western Test Range (AFWTR). Debris objects in space refer to the collection of defunct objects orbiting the Earth. Examples of debris include non-operational satellites, rocket bodies, and fragments generated from explosions, collisions, or faulty payload assembly.

Loading next visibility...
Identifier
41237, 2000-055ES
Orbit
SSO
Country
Flag of USUS
Related business
Manufacturer
Unknown
Mission
Spacecraft
Bus & Motor
Unknown
Mass
Unknown
Launch date (UTC)
2000-09-21 (25 years ago)
Launch vehicle
Unknown
Launch site
Air Force Western Test Range (AFWTR)
Object type
Payload
Rocket body
Debris
Shape & HBR
Unknown shape, 0.1 m
Radar Cross Section
Small (<0.1 m²)

Expand to show TLE details & history
Last TLE update: 20 hours ago

TLE from 20 hours ago
0 NOAA 16 DEB
1 41237U 00055ES  26071.60309691  .00007875  00000-0  18464-2 0  9999
2 41237  98.9987 312.3900 0037737 331.9591  27.9570 14.54379521536246
Epoch: 2026-03-12T14:28Z
TLE epoch observation values (Epoch: 2026-03-12T14:28:27.573Z)
Latitude
-0°
Longitude
-74.9755°
Altitude
690.718 km
Speed
7.523 km/s
True Right ascension
20h 49m 33s
True Declination
0° 00' 00"
Sunlit
Object was in daylight at epoch
Visualization orbit readout
Latitude
Unknown
Longitude
Unknown
Altitude
Unknown
Speed
Unknown
Apparent Right ascension
Unknown
Apparent Declination
Unknown
Sunlit
N/A
Visualization observer readout
Local Sidereal Time
15:21:54
Azimuth
Unknown
Elevation
Unknown
Doppler factor
Unknown
Orbital elements
Apogee altitude
735.25 km
Perigee altitude
681.765 km
Semi-major axis
7,086.644 km
Eccentricity
0.00377
Inclination
98.9987°
RAAN
312.39°
Arg. of periapsis
331.9591°
True anomaly
28.16058°
Mean anomaly
27.957°
Eccentric anomaly
28.0587°
Mean motion
3.63816 °/min
Orbital period
98.95 mins
BSTAR
0.0018464
Loading maneuver chart data...
Computing Atmospheric mass density...
Loading historical data...
Loading historical data...
Loading historical data...
Loading historical data...
Loading historical data...
Loading historical data...
Loading historical data...

Documentation

Showing up to 5 results
|